| time (UTC) | temp C | wind direction | speed KPH | gust KPH | rain 1hr cm | rain 24hr cm | rain mn cm | humidity % | barometer mb |
| 20260504231829 | 11 | 100 | 12.9 | 0.0 | 0.00 | 0.00 | 0.00 | 58 | 1016.0 |
| 20260504230329 | 11 | 100 | 12.9 | 0.0 | 0.00 | 0.00 | 0.00 | 58 | 1016.0 |
| 20260504224829 | 12 | 100 | 12.9 | 0.0 | 0.00 | 0.00 | 0.00 | 54 | 1016.0 |
| 20260504223329 | 12 | 100 | 12.9 | 0.0 | 0.00 | 0.00 | 0.00 | 54 | 1016.0 |
| 20260504221852 | 12 | 100 | 12.9 | 0.0 | 0.00 | 0.00 | 0.00 | 54 | 1016.0 |
| 20260504220329 | 12 | 100 | 12.9 | 0.0 | 0.00 | 0.00 | 0.00 | 54 | 1016.0 |
| 20260504214829 | 12 | 100 | 12.9 | 0.0 | 0.00 | 0.00 | 0.00 | 58 | 1016.0 |
| 20260504213345 | 12 | 100 | 12.9 | 0.0 | 0.00 | 0.00 | 0.00 | 58 | 1016.0 |
| 20260504211829 | 12 | 100 | 9.7 | 0.0 | 0.00 | 0.00 | 0.00 | 55 | 1016.0 |
| 20260504210329 | 12 | 100 | 9.7 | 0.0 | 0.00 | 0.00 | 0.00 | 55 | 1016.0 |
| 20260504204829 | 13 | 100 | 8.0 | 0.0 | 0.00 | 0.00 | 0.00 | 48 | 1016.0 |
| 20260504203330 | 13 | 100 | 8.0 | 0.0 | 0.00 | 0.00 | 0.00 | 48 | 1016.0 |
| 20260504201829 | 12 | 0 | 0.0 | 0.0 | 0.00 | 0.00 | 0.00 | 51 | 1016.0 |
| 20260504200330 | 12 | 0 | 0.0 | 0.0 | 0.00 | 0.00 | 0.00 | 51 | 1016.0 |
| 20260504194829 | 15 | 130 | 8.0 | 0.0 | 0.00 | 0.00 | 0.00 | 42 | 1016.0 |
| 20260504193330 | 15 | 130 | 8.0 | 0.0 | 0.00 | 0.00 | 0.00 | 42 | 1016.0 |
| 20260504191829 | 12 | 180 | 3.2 | 0.0 | 0.00 | 0.00 | 0.00 | 51 | 1016.0 |
| 20260504190329 | 12 | 180 | 3.2 | 0.0 | 0.00 | 0.00 | 0.00 | 51 | 1016.0 |
| 20260504184829 | 15 | 190 | 3.2 | 0.0 | 0.00 | 0.00 | 0.00 | 42 | 1016.0 |
| 20260504183339 | 15 | 190 | 3.2 | 0.0 | 0.00 | 0.00 | 0.00 | 42 | 1016.0 |
| 20260504181829 | 18 | 220 | 3.2 | 0.0 | 0.00 | 0.00 | 0.00 | 32 | 1016.0 |
| 20260504180329 | 18 | 220 | 3.2 | 0.0 | 0.00 | 0.00 | 0.00 | 32 | 1016.0 |
| 20260504174829 | 21 | 240 | 8.0 | 0.0 | 0.00 | 0.00 | 0.00 | 29 | 1016.0 |
| 20260504173329 | 21 | 240 | 8.0 | 0.0 | 0.00 | 0.00 | 0.00 | 29 | 1016.0 |
| 20260504171829 | 22 | 240 | 9.7 | 0.0 | 0.00 | 0.00 | 0.00 | 23 | 1016.0 |
| 20260504170329 | 22 | 240 | 9.7 | 0.0 | 0.00 | 0.00 | 0.00 | 23 | 1016.0 |
| 20260504160330 | 23 | 260 | 9.7 | 0.0 | 0.00 | 0.00 | 0.00 | 21 | 1016.0 |
| 20260504150329 | 25 | 220 | 14.5 | 0.0 | 0.00 | 0.00 | 0.00 | 18 | 1016.0 |
| 20260504140330 | 25 | 280 | 12.9 | 0.0 | 0.00 | 0.00 | 0.00 | 18 | 1017.0 |
| 20260504130329 | 25 | 260 | 8.0 | 0.0 | 0.00 | 0.00 | 0.00 | 21 | 1017.0 |
| 20260504110329 | 23 | 310 | 11.3 | 0.0 | 0.00 | 0.00 | 0.00 | 24 | 1019.0 |
| 20260504100329 | 22 | 290 | 11.3 | 0.0 | 0.00 | 0.00 | 0.00 | 29 | 1019.0 |
| 20260504081829 | 18 | 290 | 9.7 | 0.0 | 0.00 | 0.00 | 0.00 | 35 | 1020.0 |
| 20260504080329 | 18 | 290 | 9.7 | 0.0 | 0.00 | 0.00 | 0.00 | 35 | 1020.0 |
| 20260504070330 | 18 | 1.6 | 0.0 | 0.00 | 0.00 | 0.00 | 37 | 1020.0 | |
| 20260504050339 | 10 | 100 | 12.9 | 0.0 | 0.00 | 0.00 | 0.00 | 62 | 1020.0 |
| 20260504044829 | 7 | 100 | 14.5 | 0.0 | 0.00 | 0.00 | 0.00 | 66 | 1020.0 |
| 20260504043329 | 7 | 100 | 14.5 | 0.0 | 0.00 | 0.00 | 0.00 | 66 | 1020.0 |
| 20260504041829 | 7 | 100 | 12.9 | 0.0 | 0.00 | 0.00 | 0.00 | 71 | 1020.0 |
| 20260504040329 | 7 | 100 | 12.9 | 0.0 | 0.00 | 0.00 | 0.00 | 71 | 1020.0 |
| 20260504034830 | 6 | 100 | 14.5 | 0.0 | 0.00 | 0.00 | 0.00 | 76 | 1020.0 |
| 20260504033329 | 6 | 100 | 14.5 | 0.0 | 0.00 | 0.00 | 0.00 | 76 | 1020.0 |
| 20260504031829 | 6 | 120 | 9.7 | 0.0 | 0.00 | 0.00 | 0.00 | 76 | 1019.0 |
| 20260504030448 | 6 | 120 | 9.7 | 0.0 | 0.00 | 0.00 | 0.00 | 76 | 1019.0 |
| 20260504024830 | 7 | 110 | 12.9 | 0.0 | 0.00 | 0.00 | 0.00 | 71 | 1019.0 |
| 20260504023329 | 7 | 110 | 12.9 | 0.0 | 0.00 | 0.00 | 0.00 | 71 | 1019.0 |
| 20260504021829 | 7 | 100 | 12.9 | 0.0 | 0.00 | 0.00 | 0.00 | 71 | 1019.0 |
| 20260504020329 | 7 | 100 | 12.9 | 0.0 | 0.00 | 0.00 | 0.00 | 71 | 1019.0 |
| 20260504014829 | 7 | 100 | 12.9 | 0.0 | 0.00 | 0.00 | 0.00 | 66 | 1019.0 |
| 20260504013334 | 7 | 100 | 12.9 | 0.0 | 0.00 | 0.00 | 0.00 | 66 | 1019.0 |
| 20260504011947 | 7 | 110 | 9.7 | 0.0 | 0.00 | 0.00 | 0.00 | 66 | 1019.0 |
| 20260504010329 | 7 | 110 | 9.7 | 0.0 | 0.00 | 0.00 | 0.00 | 66 | 1019.0 |
| 20260504004948 | 7 | 100 | 12.9 | 0.0 | 0.00 | 0.00 | 0.00 | 66 | 1019.0 |
| 20260504003329 | 7 | 100 | 12.9 | 0.0 | 0.00 | 0.00 | 0.00 | 66 | 1019.0 |
| 20260504001829 | 8 | 90 | 12.9 | 0.0 | 0.00 | 0.00 | 0.00 | 62 | 1019.0 |
| 20260504000329 | 8 | 90 | 12.9 | 0.0 | 0.00 | 0.00 | 0.00 | 62 | 1019.0 |
| 20260503234909 | 8 | 100 | 14.5 | 0.0 | 0.00 | 0.00 | 0.00 | 62 | 1019.0 |
| 20260503233329 | 8 | 100 | 14.5 | 0.0 | 0.00 | 0.00 | 0.00 | 62 | 1019.0 |